EJA832 KBHB-KTEB

Flight info

Callsign EJA832
Flight time N/A
Altitude 43000
Route HANAA ALB V489 COATE
Aircraft C700/M-SBDGHM1RWXY/LB2

Departure

Time 2026-05-05 02:11
Airport Hancock County-Bar Harbor Airport (KBHB)

Arrival

Time N/A
Airport Teterboro Airport (KTEB)
Time Latitude Longitude Altitude Speed Heading
2026-05-05 02:07 44.45315 -68.35969 70 ft 0 kts 25°
2026-05-05 02:08 44.45327 -68.35961 70 ft 6 kts 25°
2026-05-05 02:08 44.45379 -68.35934 70 ft 6 kts 358°
2026-05-05 02:08 44.45392 -68.35927 70 ft 5 kts 25°
2026-05-05 02:09 44.45444 -68.35887 68 ft 12 kts 24°
2026-05-05 02:09 44.45529 -68.35832 67 ft 15 kts 26°
2026-05-05 02:09 44.45613 -68.35780 70 ft 9 kts 12°
2026-05-05 02:09 44.45641 -68.35794 67 ft 0 kts 321°
2026-05-05 02:10 44.45648 -68.35805 65 ft 6 kts 301°
2026-05-05 02:10 44.45657 -68.35893 69 ft 12 kts 248°
2026-05-05 02:10 44.45582 -68.35965 68 ft 17 kts 204°
2026-05-05 02:10 44.45296 -68.36149 69 ft 87 kts 204°
2026-05-05 02:11 44.44544 -68.36615 60 ft 122 kts 204°
2026-05-05 02:11 44.43568 -68.37289 523 ft 180 kts 207°
2026-05-05 02:11 44.42403 -68.38180 1376 ft 192 kts 210°
2026-05-05 02:11 44.41258 -68.39076 2095 ft 188 kts 212°
2026-05-05 02:12 44.40103 -68.39987 2797 ft 193 kts 213°
2026-05-05 02:12 44.38980 -68.43568 4250 ft 232 kts 264°
2026-05-05 02:12 44.38703 -68.45815 4963 ft 237 kts 258°
2026-05-05 02:13 44.38251 -68.48041 5676 ft 239 kts 256°
2026-05-05 02:13 44.37761 -68.50265 6384 ft 238 kts 257°
2026-05-05 02:13 44.37302 -68.52483 7069 ft 239 kts 258°
2026-05-05 02:13 44.36849 -68.54735 7774 ft 242 kts 258°
2026-05-05 02:14 44.36394 -68.56967 8468 ft 243 kts 258°
2026-05-05 02:14 44.35921 -68.59265 9217 ft 244 kts 258°
2026-05-05 02:14 44.35448 -68.61566 9945 ft 249 kts 258°
2026-05-05 02:14 44.34968 -68.63911 10622 ft 265 kts 258°
2026-05-05 02:15 44.34433 -68.66543 11346 ft 298 kts 258°
2026-05-05 02:15 44.33837 -68.69427 12322 ft 316 kts 257°
2026-05-05 02:15 44.33216 -68.72388 14110 ft 321 kts 257°
2026-05-05 02:15 44.32590 -68.75422 15621 ft 330 kts 257°
2026-05-05 02:16 44.31949 -68.78531 17157 ft 337 kts 257°
2026-05-05 02:16 44.31289 -68.81715 18494 ft 345 kts 256°
2026-05-05 02:16 44.30612 -68.84966 19609 ft 352 kts 257°
2026-05-05 02:16 44.29924 -68.88274 20610 ft 358 kts 257°
2026-05-05 02:17 44.29224 -68.91635 21604 ft 364 kts 257°
2026-05-05 02:17 44.28511 -68.95054 22578 ft 370 kts 257°
2026-05-05 02:17 44.27785 -68.98525 23513 ft 375 kts 257°
2026-05-05 02:17 44.27048 -69.02039 24316 ft 380 kts 257°
2026-05-05 02:18 44.26301 -69.05602 25122 ft 385 kts 258°
2026-05-05 02:18 44.25542 -69.09217 25845 ft 391 kts 258°
2026-05-05 02:18 44.24770 -69.12882 26603 ft 396 kts 258°
2026-05-05 02:18 44.23988 -69.16588 27352 ft 401 kts 258°
2026-05-05 02:19 44.23194 -69.20346 28032 ft 407 kts 258°
2026-05-05 02:19 44.22388 -69.24157 28707 ft 413 kts 258°
2026-05-05 02:19 44.21570 -69.28012 29399 ft 418 kts 259°
2026-05-05 02:19 44.20740 -69.31918 30049 ft 423 kts 259°
2026-05-05 02:20 44.19900 -69.35863 30637 ft 427 kts 259°
2026-05-05 02:20 44.19054 -69.39829 31341 ft 426 kts 259°
2026-05-05 02:20 44.18492 -69.42448 31883 ft 425 kts 259°
2026-05-05 02:20 44.17365 -69.47714 32879 ft 423 kts 260°
2026-05-05 02:21 44.16526 -69.51633 33600 ft 422 kts 261°
2026-05-05 02:21 44.15970 -69.54220 34022 ft 421 kts 260°
2026-05-05 02:21 44.15130 -69.58124 34591 ft 420 kts 259°
2026-05-05 02:21 44.14289 -69.62025 35117 ft 421 kts 259°
2026-05-05 02:22 44.13446 -69.65928 35642 ft 421 kts 258°
2026-05-05 02:22 44.12601 -69.69836 36143 ft 422 kts 257°
2026-05-05 02:22 44.11753 -69.73744 36635 ft 422 kts 257°
2026-05-05 02:22 44.10904 -69.77654 37153 ft 422 kts 256°
2026-05-05 02:23 44.10054 -69.81561 37638 ft 422 kts 256°
2026-05-05 02:23 44.09200 -69.85479 38114 ft 422 kts 255°
2026-05-05 02:23 44.08347 -69.89382 38566 ft 422 kts 255°
2026-05-05 02:23 44.07491 -69.93296 38895 ft 423 kts 255°
2026-05-05 02:24 44.06633 -69.97215 39218 ft 424 kts 255°
2026-05-05 02:24 44.05771 -70.01137 39536 ft 425 kts 255°
2026-05-05 02:24 44.04905 -70.05073 39805 ft 426 kts 255°
2026-05-05 02:24 44.04047 -70.08967 40107 ft 427 kts 255°
2026-05-05 02:25 44.03164 -70.12965 40406 ft 428 kts 255°
2026-05-05 02:25 44.02302 -70.16862 40686 ft 428 kts 255°
2026-05-05 02:25 44.01426 -70.20814 40965 ft 429 kts 255°
2026-05-05 02:25 44.00546 -70.24775 41251 ft 429 kts 254°
2026-05-05 02:26 43.99664 -70.28741 41527 ft 430 kts 254°
2026-05-05 02:26 43.98778 -70.32715 41781 ft 431 kts 254°
2026-05-05 02:26 43.97891 -70.36688 42042 ft 431 kts 254°
2026-05-05 02:26 43.97000 -70.40670 42300 ft 432 kts 254°
2026-05-05 02:27 43.96109 -70.44646 42549 ft 432 kts 254°
2026-05-05 02:27 43.95215 -70.48630 42801 ft 433 kts 254°
2026-05-05 02:27 43.94310 -70.52649 42807 ft 439 kts 254°
2026-05-05 02:28 43.92464 -70.60838 42823 ft 450 kts 254°
2026-05-05 02:28 43.90568 -70.69207 42818 ft 457 kts 254°
2026-05-05 02:29 43.88668 -70.77561 42823 ft 450 kts 254°
2026-05-05 02:29 43.86803 -70.85731 42819 ft 440 kts 254°
2026-05-05 02:30 43.84957 -70.93799 42823 ft 440 kts 254°
2026-05-05 02:30 43.83087 -71.01931 42826 ft 446 kts 254°
2026-05-05 02:31 43.81189 -71.10158 42830 ft 449 kts 254°
2026-05-05 02:31 43.79288 -71.18359 42821 ft 446 kts 254°
2026-05-05 02:32 43.77399 -71.26491 42809 ft 442 kts 254°
2026-05-05 02:32 43.75515 -71.34564 42810 ft 441 kts 254°
2026-05-05 02:33 43.73640 -71.42570 42809 ft 438 kts 254°
2026-05-05 02:33 43.71779 -71.50486 42795 ft 428 kts 254°
2026-05-05 02:34 43.69945 -71.58268 42782 ft 426 kts 254°
2026-05-05 02:34 43.68093 -71.66091 42776 ft 430 kts 254°
2026-05-05 02:35 43.66220 -71.73979 42787 ft 433 kts 253°
2026-05-05 02:35 43.64336 -71.81881 42782 ft 433 kts 253°
2026-05-05 02:36 43.62455 -71.89743 42786 ft 430 kts 253°
2026-05-05 02:36 43.60579 -71.97561 42780 ft 428 kts 253°
2026-05-05 02:37 43.58709 -72.05326 42774 ft 426 kts 253°
2026-05-05 02:37 43.56838 -72.13069 42755 ft 427 kts 253°
2026-05-05 02:38 43.54937 -72.20913 42775 ft 437 kts 253°
2026-05-05 02:38 43.52983 -72.28941 42778 ft 445 kts 253°
2026-05-05 02:39 43.51016 -72.36992 42782 ft 440 kts 253°
2026-05-05 02:39 43.49085 -72.44873 42779 ft 435 kts 253°
2026-05-05 02:40 43.47148 -72.52748 42779 ft 435 kts 253°
2026-05-05 02:40 43.45195 -72.60665 42789 ft 439 kts 253°
2026-05-05 02:41 43.43224 -72.68626 42791 ft 440 kts 253°
2026-05-05 02:41 43.41249 -72.76574 42781 ft 438 kts 253°
2026-05-05 02:42 43.39277 -72.84483 42776 ft 436 kts 253°
2026-05-05 02:42 43.37309 -72.92351 42777 ft 435 kts 253°
2026-05-05 02:43 43.35338 -73.00206 42775 ft 435 kts 252°
2026-05-05 02:43 43.33356 -73.08075 42769 ft 436 kts 252°
2026-05-05 02:44 43.31365 -73.15954 42753 ft 438 kts 252°
2026-05-05 02:44 43.29363 -73.23850 42755 ft 438 kts 252°
2026-05-05 02:45 43.27355 -73.31742 42763 ft 438 kts 252°
2026-05-05 02:45 43.25356 -73.39572 42759 ft 437 kts 252°
2026-05-05 02:46 43.23328 -73.47426 42759 ft 437 kts 250°
2026-05-05 02:46 43.20348 -73.54701 42746 ft 441 kts 236°
2026-05-05 02:47 43.16040 -73.60722 42746 ft 446 kts 221°
2026-05-05 02:47 43.10653 -73.65025 42747 ft 453 kts 207°
2026-05-05 02:48 43.04604 -73.67720 42181 ft 462 kts 202°
2026-05-05 02:48 43.01538 -73.69022 41593 ft 460 kts 202°
2026-05-05 02:48 42.98497 -73.70313 40991 ft 455 kts 202°
2026-05-05 02:48 42.95491 -73.71579 40396 ft 449 kts 202°
2026-05-05 02:49 42.92528 -73.72826 39812 ft 442 kts 202°
2026-05-05 02:49 42.89614 -73.74056 39237 ft 436 kts 202°
2026-05-05 02:49 42.86731 -73.75273 38682 ft 431 kts 203°
2026-05-05 02:49 42.83874 -73.76477 38074 ft 428 kts 203°
2026-05-05 02:50 42.81034 -73.77670 37504 ft 427 kts 203°
2026-05-05 02:50 42.78176 -73.78875 36941 ft 435 kts 203°
2026-05-05 02:50 42.75259 -73.80179 36355 ft 444 kts 207°
2026-05-05 02:50 42.72472 -73.81995 35772 ft 447 kts 214°
2026-05-05 02:51 42.69738 -73.84046 35179 ft 450 kts 214°
2026-05-05 02:51 42.66994 -73.86085 34573 ft 450 kts 214°
2026-05-05 02:51 42.64243 -73.88121 33991 ft 451 kts 214°
2026-05-05 02:51 42.61491 -73.90166 33358 ft 451 kts 214°
2026-05-05 02:52 42.58734 -73.92216 32758 ft 451 kts 214°
2026-05-05 02:52 42.55987 -73.94252 32163 ft 450 kts 214°
2026-05-05 02:52 42.53235 -73.96288 31567 ft 451 kts 213°
2026-05-05 02:52 42.50482 -73.98325 30972 ft 451 kts 213°
2026-05-05 02:53 42.47728 -74.00361 30376 ft 451 kts 213°
2026-05-05 02:53 42.44974 -74.02395 29761 ft 451 kts 213°
2026-05-05 02:53 42.42226 -74.04419 29146 ft 447 kts 213°
2026-05-05 02:53 42.39512 -74.06415 28560 ft 441 kts 213°
2026-05-05 02:54 42.36831 -74.08390 27990 ft 436 kts 213°
2026-05-05 02:54 42.34178 -74.10343 27420 ft 432 kts 213°
2026-05-05 02:54 42.31550 -74.12273 26840 ft 429 kts 213°
2026-05-05 02:54 42.28939 -74.14191 26294 ft 426 kts 213°
2026-05-05 02:55 42.26337 -74.16098 25731 ft 425 kts 213°
2026-05-05 02:55 42.23745 -74.17996 25178 ft 423 kts 213°
2026-05-05 02:55 42.21201 -74.19859 24632 ft 420 kts 213°
2026-05-05 02:55 42.18644 -74.21725 24084 ft 416 kts 213°